Location: Lombard
(41.8800°N, 88.0080°W)
Time: 22:29:45
(UTC-05:00)

DX 1 - Pass Details

Date: 15 June 2023
Orbit: 614 x 623 km, 98.3° (Epoch: 02 October)

Event Time Altitude Azimuth Distance (km) Brightness Sun altitude
Rises 23:35:18 0° 12° (NNE) 2,913 ? -22.4°
Reaches altitude 10° 23:37:30 10° 12° (NNE) 2,000 ? -22.5°
Maximum altitude 23:41:51 83° 286° (WNW) 630 ? -22.8°
Enters shadow 23:42:22 69° 212° (SSW) 668 ? -22.8°
